STARLINK-11738, 64375

Orbit data source: Space-Track

STARLINK-11738, 64375 is a payload satellite owned by SpaceX/Seattle (US) in LEO that was launched on Fri, 13 Jun 2025 UTC via an FALCON 9 launch vehicle from the Air Force Eastern Test Range (AFETR). Payload-class satellites include a variety of spacecraft equipped with specific instruments for various scientific and technological missions. These include communications satellites like Starlink; space stations such as the ISS; scientific satellites like the Hubble; Earth observation satellites from companies like Planet Labs, Umbra, and HawkEye 360; GPS; miniature CubeSats for education and research; and military/defense satellites.

Loading next visibility...
Identifier
64375, 2025-127F
Orbit
LEO
Country
Flag of USUS
Related business
Manufacturer
SpaceX/Seattle
Mission
Operational Commercial Communications
Bus & Motor
STARLINK V2MD, Unknown motor
Mass
960 kg wet, ~910 kg dry
Launch date (UTC)
2025-06-13 (10 months ago)
Launch vehicle
FALCON 9
Launch site
Air Force Eastern Test Range (AFETR)
Object type
Payload
Rocket body
Debris
Shape & HBR
Box + 2 Pan, 18.1 m
Radar Cross Section
36.964 m², Large (>1 m²)

Expand to show TLE details & history
Last TLE update: 1 day ago

TLE from 1 day ago
0 STARLINK-11738
1 64375U 25127F   26094.54347636  .00347682  00000-0  25786-2 0  9991
2 64375  42.9979 289.1332 0001877 244.9086 115.1587 15.71049312 47564
Epoch: 2026-04-04T13:02Z
TLE epoch observation values (Epoch: 2026-04-04T13:02:36.357Z)
Latitude
-0.00002°
Longitude
-99.38005°
Altitude
356.205 km
Speed
7.697 km/s
True Right ascension
19h 16m 31s
True Declination
0° 00' 00"
Sunlit
Object was in daylight at epoch
Visualization orbit readout
Latitude
Unknown
Longitude
Unknown
Altitude
Unknown
Speed
Unknown
Apparent Right ascension
Unknown
Apparent Declination
Unknown
Sunlit
N/A
Visualization observer readout
Local Sidereal Time
22:25:22
Azimuth
Unknown
Elevation
Unknown
Doppler factor
Unknown
Orbital elements
Apogee altitude
359.143 km
Perigee altitude
356.615 km
Semi-major axis
6,736.016 km
Eccentricity
0.00019
Inclination
42.9979°
RAAN
289.1332°
Arg. of periapsis
244.9086°
True anomaly
115.17817°
Mean anomaly
115.1587°
Eccentric anomaly
115.16843°
Mean motion
3.92589 °/min
Orbital period
91.7 mins
BSTAR
0.0025786
Loading maneuver chart data...
Computing Atmospheric mass density...
Loading historical data...
Loading historical data...
Loading historical data...
Loading historical data...
Loading historical data...
Loading historical data...
Loading historical data...

Documentation

Showing up to 5 results
|